Wind_Speed
21 24 27 26 23 22 14 12 12 15 17 22 25 28 30 27 29 28 25 22 22 22 22 29 31 32 32 32 30 29 31 29 28 29 29 31 31 31 30 32 33 33 34 34
22 25 23 19 19 21 22 16 13 17 21 24 27 36 32 28 26 24 21 18 20 23 24 29 30 30 30 29 30 30 29 29 29 30 30 29 31 34 33 33 34 35 36 37
21 15 18 23 21 20 22 18 15 15 20 24 28 34 22 21 8 7 14 16 18 19 21 22 23 23 23 24 27 28 28 28 30 33 34 29 25 27 30 32 34 35 37 38
19 25 17 11 19 19 16 19 18 18 11 10 10 13 19 17 15 11 16 15 12 7 7 12 15 18 20 21 24 25 26 28 27 26 26 24 22 23 24 26 28 30 32 33
15 10 22 23 18 14 11 5 9 12 15 19 17 11 9 5 5 14 15 10 10 13 15 17 17 23 26 23 16 14 14 16 18 20 20 18 17 20 23 24 25 26 27 28
23 14 8 14 17 13 10 11 10 11 9 11 21 20 10 13 11 19 15 11 19 28 26 21 18 16 15 12 14 13 11 9 9 10 11 13 14 16 18 19 20 20 20 21
23 26 21 16 13 18 18 13 3 3 5 7 8 18 29 8 9 18 11 21 17 17 19 17 15 13 14 15 12 10 10 10 11 12 14 16 17 18 20 19 18 18 19 20
20 9 24 28 27 22 25 26 9 5 5 4 11 14 10 6 20 26 20 15 15 13 13 15 16 16 17 16 15 14 14 14 14 15 16 18 19 19 19 19 18 19 20 20
11 12 11 16 20 27 18 28 23 9 16 8 16 21 25 16 19 18 14 11 8 5 8 12 17 20 20 19 19 17 16 16 16 18 20 21 19 18 18 18 18 18 20 24
16 6 10 15 14 19 23 17 15 18 5 9 11 17 22 11 11 18 21 13 15 13 10 14 20 21 20 19 19 19 17 17 20 22 22 20 19 19 20 21 22 23 25 29
25 17 10 14 23 23 26 21 16 15 16 5 7 14 12 8 10 10 9 11 16 17 24 22 20 21 20 19 19 19 18 18 23 24 23 22 21 20 20 22 26 29 30 32
31 16 21 29 21 18 25 25 32 20 16 20 21 48 28 17 16 16 15 28 23 21 21 18 20 22 21 22 22 21 21 22 21 23 23 24 26 26 25 25 27 29 31 31
23 17 20 11 16 22 29 32 33 33 29 40 19 35 5 12 18 22 24 22 28 25 21 24 25 25 23 23 24 24 26 29 26 27 28 29 29 31 33 34 37 38 31 28
13 19 22 21 10 9 20 32 37 38 36 37 45 52 45 34 27 29 35 37 35 31 24 23 25 24 25 26 27 28 28 31 31 32 34 37 35 32 27 28 28 27 26 26
21 29 27 31 29 27 26 22 24 35 46 40 47 45 53 38 41 43 42 39 39 34 32 30 29 29 29 30 30 30 32 35 34 37 26 28 27 28 31 31 28 26 26 26
23 32 28 36 29 32 39 45 37 38 42 44 47 61 49 48 46 47 46 44 37 30 34 37 33 32 34 34 32 32 34 37 40 33 25 26 28 28 31 27 26 28 28 29
25 26 25 35 23 28 33 52 48 50 52 48 50 60 46 45 43 44 44 44 39 37 38 37 34 33 35 36 37 36 37 40 42 39 27 26 27 28 27 27 28 29 30 32
29 26 24 29 19 18 34 31 27 28 30 31 37 39 39 36 34 42 46 49 44 43 40 37 36 35 39 39 40 38 38 40 41 29 26 25 28 28 28 29 29 29 31 34
34 31 24 26 28 33 51 41 28 24 42 40 42 40 40 36 46 51 43 43 46 44 39 37 38 40 45 45 38 37 36 37 28 24 27 27 28 28 29 30 31 33 36 39
37 39 42 33 23 22 60 36 23 17 49 39 32 37 37 40 48 46 42 41 40 40 39 39 40 45 47 42 38 35 36 24 22 26 27 28 28 30 31 32 34 36 39 43
28 34 39 43 38 39 55 36 31 27 62 42 44 43 34 35 33 39 38 35 34 37 42 42 45 49 44 37 28 29 20 20 25 27 27 28 29 30 32 34 36 39 42 46
31 21 30 34 35 35 44 40 41 51 48 46 38 37 35 39 37 35 40 40 38 37 36 43 47 37 28 28 29 21 21 24 25 26 28 29 31 33 35 37 40 42 44 46
35 42 37 33 30 37 39 39 36 34 29 37 37 32 35 29 31 31 28 30 29 27 33 35 23 24 26 23 19 22 26 25 25 27 29 31 33 34 36 38 40 43 45 46
38 33 38 41 50 50 50 45 43 36 42 45 42 36 39 34 32 34 26 19 22 22 21 21 24 26 20 19 22 24 24 25 26 27 29 31 33 35 37 40 42 44 44 42
36 31 36 41 44 46 49 46 45 49 48 46 50 40 39 32 28 24 24 22 23 22 21 23 22 20 21 23 25 24 25 25 26 28 29 31 33 35 38 40 41 40 39 39
43 42 38 44 43 40 37 37 41 43 53 48 38 38 39 21 17 19 20 21 21 20 21 20 18 21 23 25 24 23 23 25 27 28 31 32 34 35 36 36 36 37 37 36
Wind_Direction
219 221 225 231 233 235 238 233 246 254 262 272 271 273 271 269 271 279 280 277 273 267 257 254 255 258 260 263 267 271 272 269 268 264 263 267 267 269 267 263 264 267 271 275
219 230 231 232 230 232 234 237 244 265 271 283 288 281 281 276 272 273 270 264 254 255 258 262 266 269 270 272 273 271 269 267 265 263 266 270 268 267 267 265 265 268 272 275
214 227 232 232 229 232 236 236 243 257 277 283 293 294 289 290 256 216 275 245 258 260 257 263 268 273 273 271 270 269 265 262 260 260 269 275 273 268 266 267 270 272 273 274
230 230 231 228 233 232 241 248 251 260 275 277 290 290 280 266 275 215 241 271 276 266 276 279 279 271 269 274 274 269 263 262 266 266 267 272 272 270 270 270 271 270 271 272
221 238 236 235 240 229 226 247 243 255 264 272 266 263 269 236 207 262 237 230 298 288 283 290 282 262 261 276 272 277 277 270 264 269 273 278 276 272 272 274 275 276 277 278
226 226 226 230 233 221 228 224 238 256 266 265 246 228 263 233 257 206 212 275 302 296 287 278 280 274 263 272 287 283 275 263 267 268 268 272 277 282 283 280 277 278 281 285
230 236 238 234 209 214 212 194 209 241 216 253 236 221 249 219 222 210 262 303 299 292 282 267 277 276 265 274 284 282 274 270 269 269 278 288 291 285 281 281 282 283 286 290
211 230 236 234 228 218 216 213 197 225 221 276 234 237 255 251 225 226 262 286 294 280 262 254 270 274 281 280 282 286 283 277 274 281 293 298 293 281 277 277 279 284 289 294
210 226 222 232 234 224 212 213 222 270 268 274 253 262 265 241 248 256 266 282 218 269 262 272 280 281 280 279 279 279 279 277 280 287 291 287 278 274 274 279 283 284 290 299
222 221 217 218 213 213 218 219 204 213 239 248 258 258 242 233 255 242 283 258 274 279 255 289 285 280 276 269 271 275 271 268 274 283 281 274 270 272 277 280 283 291 297 302
220 224 224 210 210 210 209 214 212 220 229 252 272 260 266 260 236 250 241 279 284 277 286 289 275 273 269 264 265 261 258 261 281 275 267 267 269 273 279 287 294 298 301 301
219 230 240 243 246 230 232 231 223 219 218 241 259 267 266 273 265 247 259 291 289 296 291 279 281 271 261 257 256 251 251 264 267 266 266 268 271 274 283 293 298 301 300 298
219 224 239 242 232 233 232 230 232 239 243 250 245 257 274 262 262 265 272 275 289 298 279 283 275 264 256 255 251 249 257 271 272 268 272 274 278 287 289 291 292 293 293 294
224 235 233 240 251 237 226 240 240 236 238 248 244 261 258 267 269 269 270 279 286 289 274 277 278 265 257 254 254 260 268 277 282 279 277 276 279 284 294 291 292 292 293 292
237 247 248 253 253 255 254 250 246 243 247 243 258 260 267 270 275 282 280 278 281 275 272 277 274 269 258 254 255 258 273 280 278 280 288 281 281 285 290 293 289 290 291 289
236 252 262 267 268 269 267 261 255 253 254 256 262 264 270 273 275 275 277 280 280 272 276 274 272 268 260 255 254 278 275 277 278 282 290 283 285 286 284 284 286 289 291 290
243 253 261 266 275 270 255 261 256 255 256 254 254 266 280 282 278 277 271 272 276 275 280 272 270 266 258 260 262 275 275 278 284 283 281 288 288 287 285 289 291 291 291 293
241 240 247 264 268 265 260 271 270 266 265 262 266 273 276 267 281 287 272 266 267 272 273 264 265 261 255 255 264 274 273 280 288 276 282 284 288 285 288 292 293 293 295 298
236 236 244 245 252 263 263 256 262 263 271 274 278 274 274 272 274 279 280 266 264 265 263 259 257 255 251 254 266 273 276 280 277 283 282 289 286 288 290 290 292 295 300 303
243 243 240 242 244 254 263 272 271 259 264 270 268 280 290 277 268 276 274 269 262 255 258 260 257 254 256 259 271 274 280 268 277 279 288 284 287 288 289 293 299 303 305 308
242 235 229 236 242 254 262 259 258 254 265 272 274 282 281 277 275 271 266 265 260 258 260 261 260 254 254 259 266 277 272 273 279 284 283 285 287 290 296 300 302 305 306 308
234 222 227 238 242 252 260 262 245 273 279 274 277 280 272 270 276 270 264 265 264 262 259 258 249 250 261 269 266 273 275 281 286 288 288 290 293 297 301 304 306 308 308 308
236 237 237 236 243 259 265 277 273 275 264 281 286 278 271 263 268 272 260 254 254 255 257 252 250 258 265 264 268 272 281 288 287 285 289 293 297 301 304 306 307 308 308 308
268 264 249 256 260 263 266 267 273 268 274 280 280 271 261 262 256 259 253 252 245 247 243 248 256 257 265 270 274 284 290 285 285 289 294 298 302 304 306 307 309 309 308 308
266 272 264 263 268 266 264 263 263 270 274 273 276 263 250 244 248 247 247 236 234 234 237 245 250 256 263 274 283 283 280 284 289 293 297 301 303 306 308 308 308 307 308 309
263 271 271 265 282 268 270 274 269 270 275 274 257 248 247 240 254 235 224 225 232 238 240 244 252 266 274 278 275 279 284 289 292 297 300 303 305 306 307 307 308 309 310 311
Height
3132 3134 3134 3138 3141 3143 3145 3146 3149 3151 3152 3150 3148 3145 3145 3147 3145 3145 3146 3146 3146 3145 3145 3141 3140 3141 3141 3140 3140 3141 3141 3141 3140 3139 3138 3138 3138 3138 3138 3138 3137 3136 3134 3132
3130 3128 3132 3136 3138 3141 3143 3143 3145 3146 3147 3146 3143 3136 3138 3138 3138 3139 3139 3138 3137 3138 3138 3135 3136 3135 3136 3135 3135 3134 3133 3133 3132 3131 3131 3131 3131 3131 3131 3131 3129 3128 3127 3126
3126 3128 3128 3131 3135 3138 3142 3141 3143 3145 3144 3142 3139 3130 3128 3129 3131 3132 3132 3132 3132 3133 3133 3132 3131 3129 3129 3128 3127 3127 3126 3125 3125 3124 3123 3123 3123 3123 3123 3123 3122 3121 3119 3117
3123 3124 3127 3129 3132 3137 3140 3139 3141 3141 3142 3143 3140 3131 3125 3125 3127 3126 3126 3126 3126 3126 3127 3127 3125 3124 3123 3122 3120 3119 3118 3118 3118 3117 3117 3117 3117 3116 3116 3115 3114 3113 3111 3110
3118 3120 3124 3127 3130 3134 3137 3138 3139 3140 3141 3138 3138 3138 3118 3120 3121 3122 3121 3122 3122 3121 3121 3121 3119 3117 3116 3115 3114 3113 3112 3112 3112 3111 3111 3111 3110 3110 3109 3108 3107 3107 3105 3103
3115 3119 3122 3123 3127 3131 3134 3137 3138 3138 3139 3132 3130 3132 3112 3114 3115 3116 3117 3118 3117 3115 3113 3113 3112 3110 3110 3110 3110 3108 3107 3107 3107 3107 3107 3106 3106 3105 3104 3103 3102 3100 3099 3097
3112 3113 3117 3120 3124 3128 3131 3135 3136 3136 3135 3124 3122 3123 3107 3110 3111 3113 3112 3113 3110 3109 3107 3106 3107 3106 3106 3106 3105 3105 3104 3104 3103 3103 3103 3102 3101 3100 3099 3098 3097 3096 3094 3092
3106 3110 3110 3113 3118 3122 3125 3129 3128 3127 3124 3118 3119 3108 3100 3101 3106 3108 3108 3106 3105 3102 3101 3102 3102 3102 3102 3102 3102 3101 3100 3099 3099 3098 3097 3097 3096 3095 3094 3093 3092 3091 3090 3088
3102 3104 3106 3109 3112 3118 3121 3121 3127 3125 3122 3120 3108 3101 3097 3096 3098 3102 3102 3101 3100 3100 3099 3099 3098 3098 3098 3097 3097 3096 3095 3094 3094 3093 3092 3091 3090 3089 3089 3088 3086 3085 3084 3082
3099 3102 3103 3106 3109 3112 3114 3118 3121 3121 3117 3110 3097 3096 3090 3090 3093 3095 3096 3096 3096 3095 3096 3096 3095 3093 3092 3092 3092 3091 3091 3090 3089 3087 3086 3086 3085 3084 3083 3082 3080 3078 3076 3074
3096 3099 3101 3102 3101 3104 3108 3110 3112 3113 3111 3104 3095 3085 3085 3087 3090 3091 3092 3092 3092 3091 3091 3090 3089 3087 3087 3087 3087 3086 3086 3085 3084 3083 3081 3080 3079 3077 3077 3076 3074 3072 3069 3066
3089 3093 3094 3095 3096 3100 3101 3103 3104 3103 3103 3098 3097 3066 3081 3084 3087 3088 3088 3087 3086 3085 3084 3083 3083 3081 3081 3081 3081 3081 3081 3080 3079 3078 3077 3076 3074 3072 3070 3069 3067 3066 3063 3059
3085 3086 3090 3089 3092 3092 3092 3094 3096 3097 3098 3083 3096 3059 3074 3080 3083 3084 3082 3081 3081 3080 3079 3078 3076 3075 3075 3075 3076 3075 3075 3074 3073 3072 3071 3069 3067 3066 3063 3062 3059 3058 3055 3052
3081 3080 3079 3078 3083 3084 3085 3085 3087 3089 3085 3079 3073 3065 3071 3076 3077 3078 3077 3075 3074 3074 3073 3072 3071 3070 3070 3070 3069 3069 3069 3068 3067 3066 3064 3062 3059 3058 3057 3055 3052 3049 3047 3045
3077 3071 3074 3074 3078 3080 3080 3078 3079 3077 3073 3077 3065 3064 3059 3070 3069 3068 3068 3067 3065 3065 3066 3066 3065 3064 3063 3063 3063 3063 3063 3062 3060 3058 3056 3053 3052 3050 3049 3048 3045 3043 3040 3038
3071 3065 3068 3063 3071 3071 3069 3064 3068 3068 3068 3066 3063 3044 3062 3058 3060 3058 3058 3057 3057 3057 3057 3057 3056 3056 3056 3056 3055 3055 3055 3054 3053 3050 3048 3047 3045 3044 3042 3040 3037 3036 3033 3030
3064 3064 3065 3054 3066 3064 3058 3044 3053 3053 3053 3056 3049 3035 3052 3047 3048 3048 3048 3047 3048 3049 3048 3047 3048 3048 3048 3048 3047 3046 3046 3045 3044 3042 3041 3039 3039 3037 3035 3033 3030 3028 3025 3021
3055 3057 3059 3053 3061 3056 3038 3042 3043 3043 3042 3042 3040 3036 3040 3039 3038 3034 3032 3034 3038 3038 3038 3039 3039 3039 3039 3039 3038 3038 3037 3037 3036 3034 3034 3032 3031 3029 3026 3024 3022 3019 3016 3012
3047 3050 3049 3048 3048 3040 3025 3031 3035 3036 3026 3035 3032 3030 3029 3031 3026 3020 3021 3022 3024 3027 3027 3028 3030 3029 3028 3028 3026 3028 3028 3028 3027 3027 3026 3024 3022 3020 3018 3015 3012 3008 3004 3000
3038 3040 3042 3039 3035 3029 3008 3025 3028 3028 3006 3025 3024 3020 3019 3019 3014 3008 3011 3011 3013 3015 3017 3019 3019 3018 3018 3018 3019 3019 3019 3017 3020 3019 3017 3016 3013 3011 3008 3005 3001 2997 2992 2988
3025 3025 3025 3023 3023 3015 3007 3017 3022 3021 2988 3013 3014 3012 3012 3006 3005 3001 3000 3001 3002 3005 3007 3008 3008 3007 3003 3007 3009 3011 3011 3012 3012 3011 3009 3006 3004 3001 2998 2994 2991 2986 2981 2977
3013 3015 3013 3014 3015 3004 3002 3005 3003 2999 2999 2998 3001 3000 2998 2998 2996 2993 2992 2993 2994 2996 2997 2997 2999 2996 3001 3003 3003 3004 3006 3005 3003 3001 3000 2998 2995 2992 2988 2984 2979 2975 2971 2965
3004 3001 3001 3001 2995 2993 2992 2991 2990 2990 2990 2989 2989 2988 2988 2987 2987 2986 2983 2984 2986 2988 2990 2990 2992 2995 2995 2997 2998 2999 2998 2995 2994 2994 2992 2989 2986 2982 2978 2974 2970 2965 2960 2954
2990 2991 2991 2993 2983 2983 2982 2983 2983 2982 2981 2980 2978 2977 2979 2978 2978 2978 2978 2978 2979 2982 2984 2986 2988 2989 2990 2992 2992 2991 2989 2989 2989 2986 2984 2981 2978 2974 2969 2964 2959 2954 2949 2944
2980 2980 2978 2973 2971 2974 2971 2973 2973 2971 2969 2968 2967 2966 2968 2968 2969 2970 2971 2974 2976 2978 2980 2982 2983 2984 2986 2986 2985 2984 2984 2983 2981 2979 2977 2973 2969 2965 2959 2954 2950 2945 2940 2934
2967 2968 2968 2960 2962 2961 2962 2962 2961 2959 2955 2952 2953 2956 2958 2960 2961 2964 2966 2970 2972 2974 2976 2977 2979 2980 2981 2981 2980 2979 2978 2976 2975 2972 2968 2965 2960 2956 2952 2947 2941 2936 2931 2926